Location: Arbon
(43.0005°N, 0.7472°E)
Time: 10:54:52
(UTC+00:00)

SeaSat 1 - Pass Details

Date: 22 April 2026
Orbit: 736 x 740 km, 108.0° (Epoch: 15 May)

Event Time Altitude Azimuth Distance (km) Brightness Sun altitude
Exits shadow 21:56:45 21° 50° (NE) 1,625 4.2 -28.3°
Maximum altitude 21:56:50 21° 48° (NE) 1,625 4.2 -28.3°
Drops below altitude 10° 22:00:26 10° 1° (N) 2,257 5.6 -28.6°
Sets 22:03:11 0° 346° (NNW) 3,184 6.8 -28.9°
